EN

Hourly Weather Bolshoe Babino

Today, 22 October, Thursday

Time Temperature Precipitation Wind Pressure Humidity
00:00 +5°C° 0 mm 2 mps 745 mmHg 95%
01:00 +5°C° 0 mm 2 mps 745 mmHg 95%
02:00 +5°C° 0 mm 2 mps 745 mmHg 95%
03:00 +4°C° 0 mm 3 mps 745 mmHg 94%
04:00 +4°C° 0 mm 3 mps 744 mmHg 94%
05:00 +4°C° 0 mm 3 mps 744 mmHg 94%
06:00 +5°C° 0.6 mm 4 mps 744 mmHg 95%
07:00 +5°C° 0.6 mm 4 mps 743 mmHg 95%
08:00 +5°C° 0.6 mm 4 mps 743 mmHg 96%
09:00 +6°C° 0.2 mm 5 mps 743 mmHg 94%
10:00 +7°C° 0.2 mm 5 mps 742 mmHg 92%
11:00 +7°C° 0.2 mm 5 mps 742 mmHg 90%
12:00 +9°C° 0.1 mm 6 mps 742 mmHg 87%
13:00 +10°C° 0.1 mm 6 mps 742 mmHg 83%
14:00 +11°C° 0.1 mm 6 mps 741 mmHg 79%
15:00 +10°C° 0 mm 6 mps 741 mmHg 82%
16:00 +10°C° 0 mm 5 mps 741 mmHg 84%
17:00 +10°C° 0 mm 5 mps 740 mmHg 86%
18:00 +10°C° 0 mm 6 mps 740 mmHg 85%
19:00 +11°C° 0 mm 6 mps 741 mmHg 83%
20:00 +11°C° 0 mm 7 mps 741 mmHg 82%
21:00 +11°C° 0 mm 7 mps 741 mmHg 83%
22:00 +11°C° 0 mm 6 mps 741 mmHg 85%
23:00 +10°C° 0 mm 6 mps 741 mmHg 86%

Tomorrow, 23 October, Friday

Time Temperature Precipitation Wind Pressure Humidity
00:00 +10°C° 0 mm 6 mps 741 mmHg 87%
01:00 +10°C° 0 mm 6 mps 742 mmHg 89%
02:00 +9°C° 0 mm 5 mps 742 mmHg 90%
03:00 +9°C° 0 mm 5 mps 742 mmHg 91%
04:00 +9°C° 0 mm 5 mps 742 mmHg 93%
05:00 +8°C° 0 mm 5 mps 742 mmHg 94%
06:00 +8°C° 0 mm 5 mps 742 mmHg 95%
07:00 +8°C° 0 mm 5 mps 742 mmHg 95%
08:00 +8°C° 0 mm 5 mps 742 mmHg 96%
09:00 +10°C° 0 mm 5 mps 741 mmHg 91%
10:00 +12°C° 0 mm 5 mps 741 mmHg 87%
11:00 +13°C° 0 mm 5 mps 741 mmHg 83%
12:00 +13°C° 0.3 mm 5 mps 740 mmHg 83%
13:00 +13°C° 0.3 mm 6 mps 740 mmHg 84%
14:00 +13°C° 0.3 mm 6 mps 739 mmHg 84%
15:00 +13°C° 0.8 mm 6 mps 739 mmHg 86%
16:00 +13°C° 0.8 mm 6 mps 739 mmHg 88%
17:00 +11°C° 0.8 mm 6 mps 739 mmHg 90%
18:00 +11°C° 0.1 mm 6 mps 739 mmHg 90%
19:00 +11°C° 0.1 mm 6 mps 739 mmHg 90%
20:00 +12°C° 0.1 mm 5 mps 740 mmHg 90%
21:00 +10°C° 0 mm 5 mps 740 mmHg 91%
22:00 +9°C° 0 mm 5 mps 740 mmHg 91%
23:00 +8°C° 0 mm 4 mps 740 mmHg 92%

Day after tomorrow, 24 October, Saturday

Time Temperature Precipitation Wind Pressure Humidity
00:00 +8°C° 0 mm 4 mps 740 mmHg 92%
01:00 +8°C° 0 mm 3 mps 740 mmHg 92%
02:00 +8°C° 0 mm 3 mps 741 mmHg 92%
03:00 +7°C° 0 mm 3 mps 741 mmHg 93%
04:00 +7°C° 0 mm 3 mps 741 mmHg 94%
05:00 +7°C° 0 mm 3 mps 741 mmHg 94%
06:00 +7°C° 0 mm 3 mps 741 mmHg 94%
07:00 +7°C° 0 mm 3 mps 741 mmHg 94%
08:00 +7°C° 0 mm 2 mps 741 mmHg 93%
09:00 +8°C° 0 mm 2 mps 741 mmHg 89%
10:00 +9°C° 0 mm 2 mps 742 mmHg 85%
11:00 +10°C° 0 mm 3 mps 742 mmHg 80%
12:00 +12°C° 0 mm 2 mps 742 mmHg 79%
13:00 +12°C° 0 mm 2 mps 742 mmHg 78%
14:00 +12°C° 0 mm 2 mps 742 mmHg 76%
15:00 +12°C° 0 mm 2 mps 741 mmHg 81%
16:00 +10°C° 0 mm 2 mps 741 mmHg 86%
17:00 +9°C° 0 mm 2 mps 741 mmHg 90%
18:00 +9°C° 0 mm 2 mps 741 mmHg 92%
19:00 +9°C° 0 mm 2 mps 741 mmHg 93%
20:00 +9°C° 0 mm 2 mps 741 mmHg 95%
21:00 +9°C° 0 mm 2 mps 741 mmHg 95%
22:00 +9°C° 0 mm 2 mps 740 mmHg 95%
23:00 +9°C° 0 mm 2 mps 740 mmHg 95%

25 October, Sunday

Time Temperature Precipitation Wind Pressure Humidity
00:00 +9°C° 0.8 mm 2 mps 740 mmHg 96%
01:00 +9°C° 0.8 mm 2 mps 740 mmHg 97%
02:00 +9°C° 0.8 mm 2 mps 740 mmHg 98%
03:00 +9°C° 2 mm 2 mps 740 mmHg 97%
04:00 +10°C° 2 mm 1 mps 740 mmHg 97%
05:00 +10°C° 2 mm 1 mps 740 mmHg 97%
06:00 +9°C° 0.2 mm 2 mps 741 mmHg 96%
07:00 +9°C° 0.2 mm 2 mps 741 mmHg 96%
08:00 +9°C° 0.2 mm 2 mps 741 mmHg 96%
09:00 +9°C° 0 mm 3 mps 742 mmHg 93%
10:00 +8°C° 0 mm 4 mps 743 mmHg 90%
11:00 +8°C° 0 mm 5 mps 743 mmHg 87%
12:00 +8°C° 0 mm 5 mps 744 mmHg 84%
13:00 +9°C° 0 mm 5 mps 744 mmHg 82%
14:00 +10°C° 0 mm 4 mps 744 mmHg 80%
15:00 +8°C° 0 mm 4 mps 745 mmHg 82%
16:00 +9°C° 0 mm 3 mps 745 mmHg 84%
17:00 +8°C° 0 mm 3 mps 745 mmHg 86%
18:00 +8°C° 0 mm 3 mps 746 mmHg 87%
19:00 +7°C° 0 mm 3 mps 746 mmHg 89%
20:00 +6°C° 0 mm 2 mps 747 mmHg 90%
21:00 +6°C° 0 mm 2 mps 747 mmHg 91%
22:00 +6°C° 0 mm 2 mps 748 mmHg 92%
23:00 +5°C° 0 mm 2 mps 748 mmHg 93%

26 October, Monday

Time Temperature Precipitation Wind Pressure Humidity
00:00 +5°C° 0 mm 2 mps 748 mmHg 93%
01:00 +5°C° 0 mm 2 mps 749 mmHg 94%
02:00 +5°C° 0 mm 1 mps 749 mmHg 94%
03:00 +5°C° 0 mm 1 mps 749 mmHg 94%
04:00 +5°C° 0 mm 1 mps 749 mmHg 94%
05:00 +5°C° 0 mm 1 mps 750 mmHg 94%
06:00 +5°C° 0 mm 1 mps 750 mmHg 93%
07:00 +5°C° 0 mm 1 mps 750 mmHg 93%
08:00 +4°C° 0 mm 0 mps 751 mmHg 92%
09:00 +6°C° 0 mm 0 mps 751 mmHg 87%
10:00 +7°C° 0 mm 0 mps 751 mmHg 81%
11:00 +8°C° 0 mm 0 mps 751 mmHg 76%
12:00 +9°C° 0 mm 0 mps 752 mmHg 74%
13:00 +10°C° 0 mm 1 mps 752 mmHg 72%
14:00 +11°C° 0 mm 1 mps 752 mmHg 70%
15:00 +10°C° 0 mm 1 mps 752 mmHg 75%
16:00 +8°C° 0 mm 1 mps 752 mmHg 80%
17:00 +7°C° 0 mm 1 mps 752 mmHg 85%
18:00 +7°C° 0 mm 1 mps 752 mmHg 87%
19:00 +6°C° 0 mm 2 mps 752 mmHg 89%
20:00 +5°C° 0 mm 2 mps 752 mmHg 90%
21:00 +5°C° 0 mm 2 mps 752 mmHg 91%
22:00 +5°C° 0 mm 2 mps 753 mmHg 92%
23:00 +5°C° 0 mm 2 mps 753 mmHg 93%

27 October, Tuesday

Time Temperature Precipitation Wind Pressure Humidity
00:00 +4°C° 0 mm 2 mps 753 mmHg 94%
01:00 +4°C° 0 mm 2 mps 753 mmHg 94%
02:00 +4°C° 0 mm 2 mps 753 mmHg 95%
03:00 +4°C° 0 mm 2 mps 753 mmHg 95%
04:00 +3°C° 0 mm 3 mps 753 mmHg 94%
05:00 +3°C° 0 mm 3 mps 753 mmHg 94%
06:00 +3°C° 0 mm 3 mps 753 mmHg 94%
07:00 +3°C° 0 mm 3 mps 753 mmHg 93%
08:00 +4°C° 0 mm 3 mps 753 mmHg 93%
09:00 +5°C° 0 mm 4 mps 753 mmHg 88%
10:00 +6°C° 0 mm 4 mps 753 mmHg 82%
11:00 +8°C° 0 mm 4 mps 753 mmHg 77%
12:00 +8°C° 0 mm 5 mps 753 mmHg 76%
13:00 +9°C° 0 mm 5 mps 753 mmHg 74%
14:00 +9°C° 0 mm 5 mps 753 mmHg 73%
15:00 +8°C° 0 mm 4 mps 753 mmHg 77%
16:00 +7°C° 0 mm 4 mps 753 mmHg 80%
17:00 +6°C° 0 mm 4 mps 752 mmHg 84%
18:00 +6°C° 0 mm 4 mps 752 mmHg 83%
19:00 +6°C° 0 mm 4 mps 752 mmHg 83%
20:00 +6°C° 0 mm 4 mps 752 mmHg 82%
21:00 +6°C° 0 mm 4 mps 752 mmHg 81%
22:00 +6°C° 0 mm 4 mps 753 mmHg 80%
23:00 +6°C° 0 mm 4 mps 753 mmHg 78%

28 October, Wednesday

Time Temperature Precipitation Wind Pressure Humidity
00:00 +6°C° 0.1 mm 4 mps 753 mmHg 78%
01:00 +6°C° 0.1 mm 4 mps 753 mmHg 79%
02:00 +6°C° 0.1 mm 4 mps 753 mmHg 79%
03:00 +6°C° 0 mm 4 mps 753 mmHg 79%
04:00 +5°C° 0 mm 4 mps 753 mmHg 79%
05:00 +5°C° 0 mm 4 mps 753 mmHg 79%
06:00 +5°C° 0 mm 4 mps 753 mmHg 79%
07:00 +5°C° 0 mm 4 mps 753 mmHg 79%
08:00 +5°C° 0 mm 4 mps 753 mmHg 80%
09:00 +6°C° 0 mm 4 mps 753 mmHg 77%
10:00 +7°C° 0 mm 4 mps 753 mmHg 75%
11:00 +7°C° 0 mm 4 mps 754 mmHg 72%
12:00 +8°C° 0 mm 4 mps 753 mmHg 71%
13:00 +8°C° 0 mm 4 mps 753 mmHg 70%
14:00 +10°C° 0 mm 4 mps 753 mmHg 68%
15:00 +9°C° 0 mm 3 mps 753 mmHg 70%
16:00 +9°C° 0 mm 3 mps 753 mmHg 72%
17:00 +8°C° 0 mm 3 mps 753 mmHg 74%
18:00 +8°C° 0 mm 3 mps 753 mmHg 74%
19:00 +8°C° 0 mm 3 mps 753 mmHg 73%
20:00 +7°C° 0 mm 3 mps 753 mmHg 72%
21:00 +7°C° 0 mm 3 mps 753 mmHg 71%
22:00 +7°C° 0 mm 3 mps 754 mmHg 70%
23:00 +7°C° 0 mm 3 mps 754 mmHg 69%
Show more